COSMOS 2522 (752)

Last updated on Sat Apr 11 2026 00:03:25 GMT+0000 (Coordinated Universal Time)

1 42939U 17055A 26099.14187483 -.00000001 00000+0 00000+0 0 9997 2 42939 64.0770 194.2329 0008635 233.1682 126.7861 2.13101975 66507
UTC large
Height (km)
Speed (km/s)
/
Latitude / Longitude
Inclination (degrees)
Orbital Period (minutes)
Azimuth
Elevation
Range (km)
Doppler Factor

Next 0 passes for location: London (51.5072 / 0.1276)

Sorry there are no passes over London.
COSMOS 2522 (752)